Radiation Dose at Monitoring Post of Fukushima Daini Nuclear Power Station
Date,Time,MP-1(microSv/h),MP-2(microSv/h),MP-3(microSv/h),MP-4(microSv/h),MP-5(microSv/h),MP-6(microSv/h),MP-7(microSv/h),Wind Direction,Wind Velocity(m/s),Rain
2018/03/12,00:00,0.321,0.200,0.323,0.308,0.298,0.162,0.099,west,3.4,No
2018/03/12,00:10,0.319,0.200,0.323,0.307,0.299,0.163,0.098,west-northwest,5.1,No
2018/03/12,00:20,0.319,0.199,0.323,0.307,0.297,0.162,0.098,west-northwest,5.2,No
2018/03/12,00:30,0.320,0.200,0.324,0.308,0.300,0.163,0.098,west,4.9,No
2018/03/12,00:40,0.320,0.200,0.324,0.307,0.297,0.163,0.098,northwest,4.7,No
2018/03/12,00:50,0.320,0.199,0.324,0.306,0.299,0.162,0.098,northwest,2.8,No
2018/03/12,01:00,0.320,0.199,0.323,0.308,0.298,0.162,0.098,northwest,1.2,No
2018/03/12,01:10,0.320,0.200,0.323,0.308,0.301,0.162,0.099,north-northwest,2.1,No
2018/03/12,01:20,0.321,0.200,0.324,0.308,0.300,0.162,0.098,north-northwest,1.3,No
2018/03/12,01:30,0.320,0.200,0.322,0.307,0.299,0.162,0.099,northwest,1.0,No
2018/03/12,01:40,0.321,0.200,0.323,0.308,0.298,0.162,0.099,northwest,1.0,No
2018/03/12,01:50,0.318,0.200,0.323,0.309,0.299,0.163,0.098,west-northwest,1.0,No
2018/03/12,02:00,0.320,0.200,0.323,0.308,0.299,0.162,0.098,northwest,3.1,No
2018/03/12,02:10,0.320,0.200,0.323,0.307,0.300,0.163,0.098,west-northwest,3.7,No
2018/03/12,02:20,0.319,0.199,0.323,0.309,0.298,0.164,0.098,northwest,3.6,No
2018/03/12,02:30,0.321,0.199,0.323,0.309,0.299,0.162,0.097,northwest,4.3,No
2018/03/12,02:40,0.320,0.199,0.323,0.307,0.299,0.162,0.098,northwest,4.8,No
2018/03/12,02:50,0.319,0.200,0.323,0.309,0.298,0.163,0.098,northwest,5.0,No
2018/03/12,03:00,0.319,0.200,0.323,0.308,0.299,0.162,0.097,northwest,3.8,No
2018/03/12,03:10,0.321,0.199,0.321,0.307,0.299,0.162,0.098,northwest,4.7,No
2018/03/12,03:20,0.319,0.199,0.323,0.308,0.298,0.162,0.098,northwest,6.4,No
2018/03/12,03:30,0.320,0.201,0.322,0.307,0.297,0.163,0.098,northwest,6.6,No
2018/03/12,03:40,0.321,0.201,0.323,0.307,0.299,0.163,0.097,northwest,5.4,No
2018/03/12,03:50,0.320,0.199,0.323,0.308,0.298,0.162,0.098,northwest,5.1,No
2018/03/12,04:00,0.320,0.200,0.323,0.308,0.300,0.161,0.097,northwest,4.9,No
2018/03/12,04:10,0.320,0.199,0.324,0.308,0.298,0.162,0.098,west-northwest,6.7,No
2018/03/12,04:20,0.320,0.200,0.323,0.308,0.297,0.162,0.098,west-northwest,7.3,No
2018/03/12,04:30,0.319,0.200,0.322,0.308,0.299,0.163,0.098,west-northwest,6.7,No
2018/03/12,04:40,0.321,0.199,0.322,0.308,0.298,0.163,0.099,northwest,5.9,No
2018/03/12,04:50,0.321,0.200,0.323,0.308,0.299,0.162,0.097,west-northwest,4.6,No
2018/03/12,05:00,0.320,0.200,0.324,0.308,0.299,0.162,0.098,west-northwest,5.2,No
2018/03/12,05:10,0.321,0.199,0.323,0.307,0.299,0.163,0.098,west-northwest,4.9,No
2018/03/12,05:20,0.320,0.201,0.325,0.309,0.299,0.163,0.098,northwest,4.8,No
2018/03/12,05:30,0.322,0.199,0.323,0.308,0.298,0.163,0.098,west-northwest,4.1,No
2018/03/12,05:40,0.321,0.199,0.323,0.307,0.298,0.163,0.097,west-northwest,3.3,No
2018/03/12,05:50,0.320,0.200,0.324,0.307,0.298,0.163,0.098,northwest,3.1,No
2018/03/12,06:00,0.319,0.200,0.324,0.308,0.299,0.163,0.099,north-northwest,2.9,No
2018/03/12,06:10,0.320,0.199,0.324,0.307,0.300,0.163,0.098,northwest,1.8,No
2018/03/12,06:20,0.321,0.199,0.323,0.307,0.298,0.162,0.097,west-northwest,3.3,No
2018/03/12,06:30,0.320,0.199,0.323,0.308,0.298,0.163,0.097,west-northwest,2.8,No
2018/03/12,06:40,0.320,0.200,0.323,0.308,0.298,0.163,0.098,west-northwest,2.9,No
2018/03/12,06:50,0.320,0.200,0.324,0.308,0.300,0.162,0.097,northwest,2.6,No
2018/03/12,07:00,0.319,0.200,0.323,0.308,0.298,0.162,0.098,north,0.8,No
2018/03/12,07:10,0.319,0.200,0.324,0.307,0.297,0.163,0.097,north,0.7,No
2018/03/12,07:20,0.319,0.200,0.323,0.306,0.299,0.162,0.098,north,1.4,No
2018/03/12,07:30,0.321,0.201,0.323,0.307,0.299,0.163,0.098,north,2.1,No
2018/03/12,07:40,0.320,0.199,0.322,0.307,0.299,0.163,0.097,north,1.2,No
2018/03/12,07:50,0.320,0.199,0.323,0.305,0.299,0.162,0.098,north-northeast,1.1,No
2018/03/12,08:00,0.320,0.201,0.325,0.304,0.299,0.162,0.098,west-northwest,0.7,No
2018/03/12,08:10,0.318,0.200,0.323,0.308,0.298,0.163,0.097,east-northeast,1.0,No
2018/03/12,08:20,0.319,0.199,0.322,0.307,0.300,0.162,0.098,northeast,1.5,No
2018/03/12,08:30,0.320,0.201,0.324,0.306,0.299,0.162,0.097,east-northeast,0.8,No
2018/03/12,08:40,0.319,0.200,0.324,0.309,0.299,0.162,0.097,east-southeast,1.2,No
2018/03/12,08:50,0.319,0.199,0.322,0.308,0.300,0.163,0.097,east-northeast,1.2,No
2018/03/12,09:00,0.320,0.200,0.323,0.308,0.301,0.162,0.098,northeast,1.9,No
2018/03/12,09:10,0.319,0.200,0.323,0.308,0.299,0.162,0.098,east-northeast,1.5,No
2018/03/12,09:20,0.318,0.199,0.322,0.309,0.300,0.163,0.097,east-northeast,2.6,No
2018/03/12,09:30,0.319,0.199,0.323,0.307,0.299,0.163,0.099,northeast,1.5,No
2018/03/12,09:40,0.320,0.199,0.324,0.307,0.298,0.162,0.098,east-northeast,1.2,No
2018/03/12,09:50,0.319,0.201,0.323,0.307,0.299,0.163,0.098,northeast,2.1,No
2018/03/12,10:00,0.319,0.198,0.323,0.308,0.299,0.163,0.097,east-northeast,1.5,No
2018/03/12,10:10,0.318,0.199,0.323,0.308,0.298,0.162,0.097,northeast,1.4,No
2018/03/12,10:20,0.319,0.200,0.322,0.308,0.299,0.162,0.098,east-northeast,1.0,No
2018/03/12,10:30,0.319,0.200,0.323,0.307,0.299,0.163,0.097,east-northeast,1.5,No
2018/03/12,10:40,0.320,0.200,0.324,0.308,0.299,0.162,0.098,northeast,2.4,No
2018/03/12,10:50,0.319,0.199,0.323,0.307,0.302,0.162,0.098,east-northeast,2.1,No
2018/03/12,11:00,0.320,0.200,0.323,0.307,0.298,0.163,0.098,north-northeast,3.8,No
2018/03/12,11:10,0.319,0.200,0.323,0.307,0.300,0.163,0.098,north-northeast,3.1,No
2018/03/12,11:20,0.318,0.200,0.322,0.306,0.299,0.162,0.097,north-northeast,2.8,No
2018/03/12,11:30,0.319,0.202,0.325,0.308,0.299,0.163,0.098,northeast,3.1,No
2018/03/12,11:40,0.321,0.199,0.324,0.309,0.301,0.163,0.097,east-northeast,2.7,No
2018/03/12,11:50,0.318,0.200,0.322,0.307,0.298,0.163,0.097,east-northeast,1.7,No
2018/03/12,12:00,0.319,0.200,0.324,0.308,0.300,0.162,0.098,northeast,3.8,No
2018/03/12,12:10,0.320,0.200,0.323,0.308,0.298,0.163,0.098,east-northeast,0.9,No
2018/03/12,12:20,0.318,0.198,0.323,0.308,0.299,0.162,0.098,west,1.3,No
2018/03/12,12:30,0.319,0.199,0.322,0.307,0.297,0.163,0.098,west-northwest,3.3,No
2018/03/12,12:40,0.318,0.199,0.321,0.306,0.300,0.162,0.097,northwest,3.5,No
2018/03/12,12:50,0.319,0.199,0.325,0.309,0.298,0.162,0.098,west-northwest,4.1,No
2018/03/12,13:00,0.319,0.200,0.321,0.306,0.299,0.162,0.097,west,5.9,No
2018/03/12,13:10,0.320,0.200,0.325,0.309,0.298,0.162,0.098,west,7.1,No
2018/03/12,13:20,0.320,0.200,0.322,0.306,0.299,0.163,0.098,west-northwest,7.4,No
2018/03/12,13:30,0.320,0.200,0.324,0.310,0.298,0.162,0.098,west-northwest,6.8,No
2018/03/12,13:40,0.319,0.199,0.322,0.306,0.299,0.163,0.097,west-northwest,6.3,No
2018/03/12,13:50,0.321,0.201,0.323,0.309,0.298,0.162,0.098,west,5.5,No
2018/03/12,14:00,0.318,0.199,0.323,0.307,0.300,0.163,0.098,west-northwest,6.7,No
2018/03/12,14:10,0.321,0.200,0.323,0.308,0.300,0.163,0.098,west-northwest,6.5,No
2018/03/12,14:20,0.318,0.200,0.325,0.307,0.299,0.164,0.098,west,7.0,No
2018/03/12,14:30,0.319,0.199,0.323,0.309,0.303,0.163,0.098,west-northwest,6.3,No
2018/03/12,14:40,0.322,0.200,0.324,0.307,0.299,0.163,0.098,west,8.3,No
2018/03/12,14:50,0.320,0.201,0.324,0.309,0.301,0.162,0.098,west-northwest,6.2,No
2018/03/12,15:00,0.319,0.200,0.324,0.310,0.300,0.163,0.098,west,7.8,No
2018/03/12,15:10,0.319,0.201,0.325,0.309,0.303,0.163,0.097,west,6.2,No
2018/03/12,15:20,0.320,0.201,0.325,0.310,0.300,0.164,0.099,west-northwest,6.2,No
2018/03/12,15:30,0.321,0.200,0.325,0.310,0.301,0.162,0.097,west,6.8,No
2018/03/12,15:40,0.319,0.200,0.325,0.310,0.303,0.163,0.098,west,6.9,No
2018/03/12,15:50,0.320,0.200,0.325,0.311,0.301,0.163,0.098,west,6.3,No
2018/03/12,16:00,0.321,0.200,0.324,0.309,0.301,0.164,0.098,west,6.7,No
2018/03/12,16:10,0.321,0.200,0.326,0.309,0.302,0.164,0.099,west-northwest,3.6,No
2018/03/12,16:20,0.322,0.200,0.325,0.308,0.301,0.164,0.098,west-northwest,4.0,No
2018/03/12,16:30,0.321,0.200,0.324,0.311,0.301,0.163,0.099,west,6.7,No
2018/03/12,16:40,0.321,0.200,0.326,0.310,0.301,0.164,0.097,west,8.1,No
2018/03/12,16:50,0.322,0.201,0.324,0.308,0.300,0.164,0.098,west,4.6,No
2018/03/12,17:00,0.323,0.201,0.324,0.309,0.302,0.163,0.099,west,1.9,No
2018/03/12,17:10,0.320,0.200,0.325,0.310,0.301,0.164,0.098,west,4.7,No
2018/03/12,17:20,0.320,0.200,0.326,0.310,0.301,0.163,0.098,west-northwest,4.6,No
2018/03/12,17:30,0.321,0.201,0.325,0.310,0.302,0.162,0.098,west-northwest,5.2,No
2018/03/12,17:40,0.321,0.200,0.324,0.310,0.301,0.163,0.099,west-northwest,4.6,No
2018/03/12,17:50,0.322,0.200,0.323,0.311,0.300,0.164,0.098,west-northwest,2.0,No
2018/03/12,18:00,0.320,0.201,0.325,0.308,0.300,0.163,0.098,west-northwest,4.1,No
2018/03/12,18:10,0.321,0.201,0.324,0.309,0.300,0.164,0.099,west-northwest,4.4,No
2018/03/12,18:20,0.322,0.201,0.325,0.309,0.300,0.163,0.098,northwest,3.6,No
2018/03/12,18:30,0.321,0.201,0.326,0.309,0.300,0.164,0.097,north-northwest,3.0,No
2018/03/12,18:40,0.322,0.201,0.326,0.310,0.299,0.163,0.100,north-northwest,3.5,No
2018/03/12,18:50,0.321,0.201,0.325,0.310,0.301,0.165,0.098,north-northwest,2.0,No
2018/03/12,19:00,0.322,0.202,0.325,0.311,0.300,0.163,0.098,northwest,2.3,No
2018/03/12,19:10,0.320,0.201,0.325,0.310,0.298,0.163,0.098,north-northwest,2.2,No
2018/03/12,19:20,0.321,0.200,0.326,0.310,0.298,0.163,0.099,northwest,0.7,No
2018/03/12,19:30,0.321,0.201,0.325,0.308,0.299,0.164,0.097,north-northwest,2.8,No
2018/03/12,19:40,0.321,0.201,0.325,0.309,0.300,0.163,0.098,northwest,5.3,No
2018/03/12,19:50,0.322,0.200,0.325,0.310,0.300,0.163,0.098,north-northwest,3.1,No
2018/03/12,20:00,0.321,0.201,0.325,0.310,0.300,0.164,0.099,north-northwest,4.5,No
2018/03/12,20:10,0.321,0.201,0.325,0.309,0.300,0.163,0.099,north,3.4,No
2018/03/12,20:20,0.321,0.201,0.324,0.309,0.299,0.164,0.098,north,2.5,No
2018/03/12,20:30,0.322,0.201,0.325,0.310,0.299,0.163,0.099,north-northeast,2.0,No
2018/03/12,20:40,0.320,0.201,0.325,0.310,0.300,0.163,0.098,north,1.2,No
2018/03/12,20:50,0.321,0.201,0.325,0.308,0.301,0.164,0.098,north,4.0,No
2018/03/12,21:00,0.321,0.201,0.326,0.310,0.300,0.163,0.098,north,3.9,No
2018/03/12,21:10,0.321,0.201,0.325,0.309,0.299,0.164,0.098,north,5.4,No
2018/03/12,21:20,0.323,0.200,0.326,0.308,0.299,0.163,0.099,north,4.9,No
2018/03/12,21:30,0.323,0.200,0.325,0.309,0.301,0.163,0.098,north,3.8,No
2018/03/12,21:40,0.322,0.201,0.325,0.310,0.301,0.164,0.099,southeast,0.7,No
2018/03/12,21:50,0.323,0.201,0.327,0.310,0.299,0.163,0.098,-,CALM,No
2018/03/12,22:00,0.321,0.203,0.325,0.309,0.299,0.163,0.098,east,1.1,No
2018/03/12,22:10,0.321,0.201,0.325,0.309,0.301,0.162,0.099,south,2.7,No
2018/03/12,22:20,0.320,0.200,0.325,0.311,0.301,0.163,0.098,south-southwest,4.7,No
2018/03/12,22:30,0.322,0.201,0.326,0.309,0.298,0.163,0.098,south-southwest,3.8,No
2018/03/12,22:40,0.322,0.200,0.325,0.309,0.300,0.164,0.099,south-southwest,4.3,No
2018/03/12,22:50,0.322,0.201,0.325,0.310,0.300,0.163,0.099,south-southwest,3.5,No
2018/03/12,23:00,0.320,0.201,0.326,0.311,0.300,0.163,0.098,south-southwest,2.5,No
2018/03/12,23:10,0.320,0.201,0.324,0.309,0.300,0.164,0.098,south-southwest,1.3,No
2018/03/12,23:20,0.322,0.201,0.325,0.310,0.299,0.163,0.098,south-southwest,1.1,No
2018/03/12,23:30,0.320,0.201,0.326,0.310,0.299,0.163,0.098,south,1.2,No
2018/03/12,23:40,0.321,0.201,0.327,0.309,0.301,0.163,0.099,-,CALM,No
2018/03/12,23:50,0.322,0.201,0.326,0.310,0.300,0.164,0.098,southwest,0.6,No
